Retour au catalogue

STARLINK-5774

ActifCommunicationsVLEO
NORAD 56029·PAYLOAD·🇺🇸 United States

Lancé Mar 24, 2023 depuis Cape Canaveral Space Force Station

Loading…

Prochains Passages (prochaines 24 heures)

TLE

FraisSource: CelesTrak SupGP

Époque: Sep 15, 2026, 01:55 UTC

1 56029C 23042AV  26258.08034722 -.00044883  00000+0 -16256-2 0  2580
2 56029  43.0026  55.3683 0001492 270.1706  86.3906 15.27601894    14

Suivez STARLINK-5774 en temps réel avec AllMySat

Download on the App Store